This demonstration page uses our WeatherBlox Daily Observations layout. Learn more.

39.29038, -76.61219

Hourly Observations for February 13, 2020

Temp ( °F °C ) Dew Point ( °F °C ) Humidity (%) Winds ( mph kmh ) Pressure ( in mb ) Visibility ( mi km ) Precip ( " mm )
12:54 am 00:54 undefined 40 4.4 38 3.3 93 93 undefined N/A 29.89 1012 N/A 0 0
1:54 am 01:54 undefined 40 4.4 38 3.3 93 93 undefined N/A 29.87 1012 N/A 0.01 0.254
2:54 am 02:54 undefined 40 4.4 38 3.3 93 93 undefined N/A 29.8 1009 N/A 0.01 0.254
3:54 am 03:54 undefined 41 5 39 3.9 93 93 undefined N/A 29.76 1008 N/A 0 0
4:54 am 04:54 undefined 41 5 39 3.9 93 93 undefined N/A 29.73 1007 N/A 0 0
5:54 am 05:54 undefined 42 5.6 40 4.4 92 92 undefined N/A 29.72 1006 N/A 0 0
6:54 am 06:54 undefined 43 6.1 40 4.4 89 89 undefined N/A 29.71 1006 N/A 0.02 0.508
7:54 am 07:54 undefined 46 7.8 43 6.1 89 89 undefined N/A 29.67 1005 N/A 0.03 0.762
8:54 am 08:54 undefined 49 9.4 46 7.8 90 90 undefined N/A 29.67 1005 N/A 0 0
9:54 am 09:54 undefined 50 10 47 8.3 89 89 undefined N/A 29.66 1005 N/A 0.02 0.508
10:54 am 10:54 undefined 53 11.7 51 10.6 93 93 undefined N/A 29.6 1002 N/A 0.04 1.016
11:54 am 11:54 undefined 55 12.8 52 11.1 90 90 undefined N/A 29.63 1003 N/A 0 0
12:54 pm 12:54 undefined 56 13.3 52 11.1 87 87 undefined N/A 29.64 1004 N/A 0 0
1:54 pm 13:54 undefined 55 12.8 51 10.6 87 87 undefined N/A 29.63 1004 N/A 0 0
2:54 pm 14:54 undefined 55 12.8 50 10 83 83 undefined N/A 29.66 1005 N/A 0 0
3:54 pm 15:54 undefined 56 13.3 48 8.9 75 75 undefined N/A 29.69 1005 N/A 0 0
4:54 pm 16:54 undefined 54 12.2 45 7.2 72 72 undefined N/A 29.72 1006 N/A 0 0
5:54 pm 17:54 undefined 52 11.1 40 4.4 64 64 undefined N/A 29.77 1008 N/A 0 0
6:54 pm 18:54 undefined 49 9.4 33 0.6 55 55 undefined N/A 29.84 1011 N/A 0 0
7:54 pm 19:54 undefined 47 8.3 30 -1.1 52 52 undefined N/A 29.91 1013 N/A 0 0
8:54 pm 20:54 undefined 45 7.2 29 -1.7 54 54 undefined N/A 29.95 1014 N/A 0 0
9:54 pm 21:54 undefined 44 6.7 29 -1.7 55 55 undefined N/A 30 1016 N/A 0 0
10:54 pm 22:54 undefined 44 6.7 28 -2.2 53 53 undefined N/A 30.01 1016 N/A 0 0
11:54 pm 23:54 undefined 43 6.1 27 -2.8 53 53 undefined N/A 30.03 1017 N/A 0 0

Powered by AerisWeather